This is the latest recevied weather packets stored in our database for station/object N0MPM-4. If no packets are shown the sender has not sent any weather packets the latest 10 day(s).
| Time | Temp. | Humidity | Pressure | Rain* | Wind** | Luminosity | Snow |
|---|---|---|---|---|---|---|---|
| 1777568113 | 12.22° C | 76% | 1017.4 hPa | 0 mm | - | - | - |
| 1777567813 | 12.22° C | 77% | 1017.3 hPa | 0 mm | - | - | - |
| 1777567513 | 12.22° C | 75% | 1017.3 hPa | 0 mm | - | - | - |
| 1777567213 | 12.22° C | 75% | 1017.3 hPa | 0 mm | - | - | - |
| 1777566913 | 12.22° C | 76% | 1017.2 hPa | 0 mm | - | - | - |
| 1777566613 | 12.22° C | 76% | 1017.3 hPa | 0 mm | - | - | - |
| 1777566313 | 12.22° C | 76% | 1017.3 hPa | 0 mm | - | - | - |
| 1777566013 | 12.22° C | 75% | 1017.3 hPa | 0 mm | - | - | - |
| 1777565713 | 12.22° C | 75% | 1017.2 hPa | 0 mm | - | - | - |
| 1777565413 | 12.22° C | 77% | 1017.3 hPa | 0 mm | - | - | - |
| 1777565113 | 11.67° C | 76% | 1017.3 hPa | 0 mm | - | - | - |
| 1777564813 | 11.67° C | 76% | 1017.3 hPa | 0 mm | - | - | - |
| 1777564513 | 11.11° C | 79% | 1017.1 hPa | 0 mm | - | - | - |
| 1777564213 | 10.56° C | 81% | 1017 hPa | 0 mm | - | - | - |
| 1777563913 | 10.56° C | 81% | 1017.1 hPa | 0 mm | - | - | - |
| 1777563613 | 10.56° C | 80% | 1017.2 hPa | 0 mm | - | - | - |
| 1777563313 | 10.56° C | 81% | 1017.3 hPa | 0 mm | - | - | - |
| 1777563013 | 10° C | 80% | 1017.2 hPa | 0 mm | - | - | - |
| 1777562713 | 10° C | 81% | 1017.2 hPa | 0 mm | - | - | - |
| 1777562413 | 10° C | 81% | 1017.2 hPa | 0 mm | - | - | - |
| 1777562113 | 10° C | 81% | 1017.2 hPa | 0 mm | - | - | - |
| 1777561813 | 10° C | 81% | 1017.2 hPa | 0 mm | - | - | - |
| 1777561513 | 10° C | 82% | 1017.2 hPa | 0 mm | - | - | - |
| 1777561213 | 10° C | 82% | 1017.3 hPa | 0 mm | - | - | - |
| 1777560913 | 10° C | 82% | 1017.2 hPa | 0 mm | - | - | - |
* Rain latest hour (hover to see other rain measurements)
** Current wind speed in m/s (hover to see current wind gust speed)